TimeEDT,TemperatureF,Dew PointF,Humidity,Sea Level PressureIn,VisibilityMPH,Wind Direction,Wind SpeedMPH,Gust SpeedMPH,PrecipitationIn,Events,Conditions,WindDirDegrees,DateUTC
12:51 AM,36.0,32.0,86,29.65,10.0,WNW,4.6,-,0.00,,Overcast,290,2013-03-26 04:51:00
1:51 AM,35.1,32.0,89,29.66,10.0,WSW,5.8,-,N/A,,Overcast,240,2013-03-26 05:51:00
2:51 AM,35.1,32.0,89,29.67,10.0,WSW,5.8,-,N/A,,Overcast,250,2013-03-26 06:51:00
3:51 AM,34.0,32.0,92,29.68,10.0,SW,6.9,-,N/A,,Overcast,230,2013-03-26 07:51:00
4:51 AM,34.0,32.0,92,29.70,10.0,SW,5.8,-,N/A,,Overcast,230,2013-03-26 08:51:00
5:51 AM,34.0,30.9,89,29.71,10.0,WSW,4.6,-,N/A,,Overcast,240,2013-03-26 09:51:00
6:51 AM,33.1,30.9,92,29.73,10.0,WSW,4.6,-,N/A,,Overcast,240,2013-03-26 10:51:00
7:51 AM,35.1,30.9,85,29.75,10.0,West,4.6,-,N/A,,Overcast,260,2013-03-26 11:51:00
8:51 AM,39.0,32.0,76,29.77,10.0,SW,4.6,-,N/A,,Overcast,230,2013-03-26 12:51:00
9:51 AM,39.9,30.9,70,29.79,10.0,Variable,6.9,-,N/A,,Overcast,0,2013-03-26 13:51:00
10:51 AM,44.1,33.1,65,29.79,10.0,NW,9.2,16.1,N/A,,Scattered Clouds,320,2013-03-26 14:51:00
11:51 AM,46.0,30.0,54,29.79,10.0,NW,5.8,-,N/A,,Scattered Clouds,310,2013-03-26 15:51:00
12:51 PM,50.0,27.0,41,29.78,10.0,NNW,13.8,20.7,N/A,,Clear,330,2013-03-26 16:51:00
1:51 PM,48.0,24.1,39,29.78,10.0,NNW,12.7,-,N/A,,Overcast,330,2013-03-26 17:51:00
2:51 PM,48.9,24.1,38,29.77,10.0,WNW,5.8,-,0.00,,Overcast,300,2013-03-26 18:51:00
3:51 PM,51.1,24.1,35,29.77,10.0,NNW,11.5,-,0.00,,Overcast,330,2013-03-26 19:51:00
4:51 PM,48.0,27.0,44,29.78,10.0,WNW,11.5,-,N/A,,Mostly Cloudy,290,2013-03-26 20:51:00
5:51 PM,46.9,28.0,48,29.80,10.0,NW,11.5,-,N/A,,Mostly Cloudy,310,2013-03-26 21:51:00
6:51 PM,46.0,28.9,51,29.83,10.0,NW,8.1,-,N/A,,Overcast,310,2013-03-26 22:51:00
7:51 PM,42.1,30.9,65,29.86,10.0,NW,18.4,26.5,0.00,Rain,Light Rain,320,2013-03-26 23:51:00
8:06 PM,39.2,32.0,75,29.86,10.0,WNW,9.2,-,0.01,,Overcast,290,2013-03-27 00:06:00
8:51 PM,41.0,32.0,70,29.88,10.0,WNW,3.5,-,0.01,,Overcast,290,2013-03-27 00:51:00
9:51 PM,35.1,28.9,78,29.90,10.0,WSW,4.6,-,N/A,,Clear,240,2013-03-27 01:51:00
10:51 PM,33.1,28.0,82,29.91,10.0,SW,5.8,-,N/A,,Clear,230,2013-03-27 02:51:00
11:51 PM,35.1,27.0,72,29.91,10.0,West,4.6,-,N/A,,Clear,260,2013-03-27 03:51:00